Time,TemperatureF,DewpointF,PressureIn,WindDirection,WindDirectionDegrees,WindSpeedMPH,WindSpeedGustMPH,Humidity,HourlyPrecipIn,Conditions,Clouds,dailyrainin,SolarRadiationWatts/m^2,SoftwareType,DateUTC
2013-02-17 00:01:00,27.0,18.0,-100.00,SSW,210,7.0,17.0,67,0.00,,,0.00,1.000000,,2013-02-17 08:01:00,
2013-02-17 00:11:00,27.0,18.0,-100.00,SSW,210,7.0,17.0,67,0.00,,,0.00,1.000000,,2013-02-17 08:11:00,
2013-02-17 00:21:00,27.0,18.0,-100.00,SSW,210,7.0,17.0,67,0.00,,,0.00,1.000000,,2013-02-17 08:21:00,
2013-02-17 00:52:00,26.0,19.0,-100.00,SSW,208,5.0,12.0,73,0.00,,,0.00,1.000000,,2013-02-17 08:52:00,
2013-02-17 01:01:00,26.0,19.0,-100.00,SSW,208,5.0,12.0,73,0.00,,,0.00,1.000000,,2013-02-17 09:01:00,
2013-02-17 01:11:00,26.0,19.0,-100.00,SSW,208,5.0,12.0,73,0.00,,,0.00,1.000000,,2013-02-17 09:11:00,
2013-02-17 01:21:00,26.0,19.0,-100.00,SSW,208,5.0,12.0,73,0.00,,,0.00,1.000000,,2013-02-17 09:21:00,
2013-02-17 01:52:00,25.0,19.0,-100.00,SSW,199,5.0,9.0,78,0.00,,,0.00,1.000000,,2013-02-17 09:52:00,
2013-02-17 02:01:00,25.0,19.0,-100.00,SSW,199,5.0,9.0,78,0.00,,,0.00,1.000000,,2013-02-17 10:01:00,
2013-02-17 02:11:00,25.0,19.0,-100.00,SSW,199,5.0,9.0,78,0.00,,,0.00,1.000000,,2013-02-17 10:11:00,
2013-02-17 02:21:00,25.0,19.0,-100.00,SSW,199,5.0,9.0,78,0.00,,,0.00,1.000000,,2013-02-17 10:21:00,
2013-02-17 02:42:00,25.0,21.0,-100.00,SSW,203,5.0,7.0,83,0.00,,,0.00,1.000000,,2013-02-17 10:42:00,
2013-02-17 02:52:00,25.0,21.0,-100.00,SSW,203,5.0,7.0,83,0.00,,,0.00,1.000000,,2013-02-17 10:52:00,
2013-02-17 03:01:00,25.0,21.0,-100.00,SSW,203,5.0,7.0,83,0.00,,,0.00,1.000000,,2013-02-17 11:01:00,
2013-02-17 03:11:00,25.0,21.0,-100.00,SSW,203,5.0,7.0,83,0.00,,,0.00,1.000000,,2013-02-17 11:11:00,
2013-02-17 03:21:00,25.0,21.0,-100.00,SSW,203,5.0,7.0,83,0.00,,,0.00,1.000000,,2013-02-17 11:21:00,
2013-02-17 03:52:00,24.0,19.0,-100.00,SSW,197,8.0,10.0,81,0.00,,,-99.99,1.000000,,2013-02-17 11:52:00,
2013-02-17 04:03:00,24.0,19.0,-100.00,SSW,197,8.0,10.0,81,0.00,,,-99.99,1.000000,,2013-02-17 12:03:00,
2013-02-17 04:11:00,24.0,19.0,-100.00,SSW,197,8.0,10.0,81,0.00,,,-99.99,1.000000,,2013-02-17 12:11:00,
2013-02-17 04:22:00,24.0,19.0,-100.00,SSW,197,8.0,10.0,81,0.00,,,-99.99,1.000000,,2013-02-17 12:22:00,
2013-02-17 04:52:00,24.0,19.0,-100.00,South,190,5.0,11.0,80,0.00,,,0.00,1.000000,,2013-02-17 12:52:00,
2013-02-17 05:02:00,24.0,19.0,-100.00,South,190,5.0,11.0,80,0.00,,,0.00,1.000000,,2013-02-17 13:02:00,
2013-02-17 05:11:00,24.0,19.0,-100.00,South,190,5.0,11.0,80,0.00,,,0.00,1.000000,,2013-02-17 13:11:00,
2013-02-17 05:21:00,24.0,19.0,-100.00,South,190,5.0,11.0,80,0.00,,,0.00,1.000000,,2013-02-17 13:21:00,
2013-02-17 05:52:00,24.0,19.0,-100.00,South,188,7.0,12.0,82,0.00,,,-99.99,1.000000,,2013-02-17 13:52:00,
2013-02-17 06:01:00,24.0,19.0,-100.00,South,188,7.0,12.0,82,0.00,,,-99.99,1.000000,,2013-02-17 14:01:00,
2013-02-17 06:11:00,24.0,19.0,-100.00,South,188,7.0,12.0,82,0.00,,,-99.99,1.000000,,2013-02-17 14:11:00,
2013-02-17 06:21:00,24.0,19.0,-100.00,South,188,7.0,12.0,82,0.00,,,-99.99,1.000000,,2013-02-17 14:21:00,
2013-02-17 06:53:00,23.0,18.0,-100.00,SSW,193,8.0,12.0,81,0.00,,,0.00,1.000000,,2013-02-17 14:53:00,
2013-02-17 07:01:00,23.0,18.0,-100.00,SSW,193,8.0,12.0,81,0.00,,,0.00,1.000000,,2013-02-17 15:01:00,
2013-02-17 07:11:00,23.0,18.0,-100.00,SSW,193,8.0,12.0,81,0.00,,,0.00,1.000000,,2013-02-17 15:11:00,
2013-02-17 07:21:00,23.0,18.0,-100.00,SSW,193,8.0,12.0,81,0.00,,,0.00,1.000000,,2013-02-17 15:21:00,
2013-02-17 07:52:00,23.0,18.0,-100.00,South,190,7.0,12.0,80,0.00,,,0.00,5.000000,,2013-02-17 15:52:00,
2013-02-17 08:01:00,23.0,18.0,-100.00,South,190,7.0,12.0,80,0.00,,,0.00,5.000000,,2013-02-17 16:01:00,
2013-02-17 08:11:00,23.0,18.0,-100.00,South,190,7.0,12.0,80,0.00,,,0.00,5.000000,,2013-02-17 16:11:00,
2013-02-17 08:21:00,23.0,18.0,-100.00,South,190,7.0,12.0,80,0.00,,,0.00,5.000000,,2013-02-17 16:21:00,
2013-02-17 08:42:00,25.0,19.0,-100.00,South,189,6.0,11.0,77,0.00,,,0.00,33.000000,,2013-02-17 16:42:00,
2013-02-17 08:52:00,25.0,19.0,-100.00,South,189,6.0,11.0,77,0.00,,,0.00,33.000000,,2013-02-17 16:52:00,
2013-02-17 09:02:00,25.0,19.0,-100.00,South,189,6.0,11.0,77,0.00,,,0.00,33.000000,,2013-02-17 17:02:00,
2013-02-17 09:11:00,25.0,19.0,-100.00,South,189,6.0,11.0,77,0.00,,,0.00,33.000000,,2013-02-17 17:11:00,
2013-02-17 09:21:00,25.0,19.0,-100.00,South,189,6.0,11.0,77,0.00,,,0.00,33.000000,,2013-02-17 17:21:00,
2013-02-17 09:42:00,30.0,20.0,-100.00,SSW,194,6.0,12.0,65,0.00,,,0.00,224.000000,,2013-02-17 17:42:00,
2013-02-17 09:52:00,30.0,20.0,-100.00,SSW,194,6.0,12.0,65,0.00,,,0.00,224.000000,,2013-02-17 17:52:00,
2013-02-17 10:01:00,30.0,20.0,-100.00,SSW,194,6.0,12.0,65,0.00,,,0.00,224.000000,,2013-02-17 18:01:00,
2013-02-17 10:11:00,30.0,20.0,-100.00,SSW,194,6.0,12.0,65,0.00,,,0.00,224.000000,,2013-02-17 18:11:00,
2013-02-17 10:21:00,30.0,20.0,-100.00,SSW,194,6.0,12.0,65,0.00,,,0.00,224.000000,,2013-02-17 18:21:00,
2013-02-17 10:52:00,33.0,19.0,-100.00,SSW,207,5.0,11.0,55,0.00,,,0.00,259.000000,,2013-02-17 18:52:00,
2013-02-17 11:01:00,33.0,19.0,-100.00,SSW,207,5.0,11.0,55,0.00,,,0.00,259.000000,,2013-02-17 19:01:00,
2013-02-17 11:11:00,33.0,19.0,-100.00,SSW,207,5.0,11.0,55,0.00,,,0.00,259.000000,,2013-02-17 19:11:00,
2013-02-17 11:21:00,33.0,19.0,-100.00,SSW,207,5.0,11.0,55,0.00,,,0.00,259.000000,,2013-02-17 19:21:00,
2013-02-17 11:52:00,38.0,18.0,-100.00,SW,214,5.0,10.0,43,0.00,,,0.00,502.000000,,2013-02-17 19:52:00,
2013-02-17 12:01:00,38.0,18.0,-100.00,SW,214,5.0,10.0,43,0.00,,,0.00,502.000000,,2013-02-17 20:01:00,
2013-02-17 12:11:00,38.0,18.0,-100.00,SW,214,5.0,10.0,43,0.00,,,0.00,502.000000,,2013-02-17 20:11:00,
2013-02-17 12:21:00,38.0,18.0,-100.00,SW,214,5.0,10.0,43,0.00,,,0.00,502.000000,,2013-02-17 20:21:00,
2013-02-17 12:42:00,42.0,15.0,-100.00,SSW,206,5.0,9.0,33,0.00,,,0.00,595.000000,,2013-02-17 20:42:00,
2013-02-17 12:52:00,42.0,15.0,-100.00,SSW,206,5.0,9.0,33,0.00,,,0.00,595.000000,,2013-02-17 20:52:00,
2013-02-17 13:01:00,42.0,15.0,-100.00,SSW,206,5.0,9.0,33,0.00,,,0.00,595.000000,,2013-02-17 21:01:00,
2013-02-17 13:11:00,42.0,15.0,-100.00,SSW,206,5.0,9.0,33,0.00,,,0.00,595.000000,,2013-02-17 21:11:00,
2013-02-17 13:21:00,42.0,15.0,-100.00,SSW,206,5.0,9.0,33,0.00,,,0.00,595.000000,,2013-02-17 21:21:00,
2013-02-17 13:53:00,43.0,12.0,-100.00,SSW,205,5.0,9.0,28,0.00,,,0.00,596.000000,,2013-02-17 21:53:00,
2013-02-17 14:01:00,43.0,12.0,-100.00,SSW,205,5.0,9.0,28,0.00,,,0.00,596.000000,,2013-02-17 22:01:00,
2013-02-17 14:11:00,43.0,12.0,-100.00,SSW,205,5.0,9.0,28,0.00,,,0.00,596.000000,,2013-02-17 22:11:00,
2013-02-17 14:21:00,43.0,12.0,-100.00,SSW,205,5.0,9.0,28,0.00,,,0.00,596.000000,,2013-02-17 22:21:00,
2013-02-17 14:42:00,44.0,3.0,-100.00,WSW,251,4.0,8.0,18,0.00,,,0.00,528.000000,,2013-02-17 22:42:00,
2013-02-17 14:52:00,44.0,3.0,-100.00,WSW,251,4.0,8.0,18,0.00,,,0.00,528.000000,,2013-02-17 22:52:00,
2013-02-17 15:01:00,44.0,3.0,-100.00,WSW,251,4.0,8.0,18,0.00,,,0.00,528.000000,,2013-02-17 23:01:00,
2013-02-17 15:52:00,45.0,7.0,-100.00,South,189,3.0,9.0,21,0.00,,,-99.99,435.000000,,2013-02-17 23:52:00,
2013-02-17 16:01:00,45.0,7.0,-100.00,South,189,3.0,9.0,21,0.00,,,-99.99,435.000000,,2013-02-18 00:01:00,
2013-02-17 16:11:00,45.0,7.0,-100.00,South,189,3.0,9.0,21,0.00,,,-99.99,435.000000,,2013-02-18 00:11:00,
2013-02-17 16:22:00,45.0,7.0,-100.00,South,189,3.0,9.0,21,0.00,,,-99.99,435.000000,,2013-02-18 00:22:00,
2013-02-17 16:42:00,44.0,10.0,-100.00,SW,227,2.0,7.0,24,0.00,,,0.00,275.000000,,2013-02-18 00:42:00,
2013-02-17 16:52:00,44.0,10.0,-100.00,SW,227,2.0,7.0,24,0.00,,,0.00,275.000000,,2013-02-18 00:52:00,
2013-02-17 17:01:00,44.0,10.0,-100.00,SW,227,2.0,7.0,24,0.00,,,0.00,275.000000,,2013-02-18 01:01:00,
2013-02-17 17:11:00,44.0,10.0,-100.00,SW,227,2.0,7.0,24,0.00,,,0.00,275.000000,,2013-02-18 01:11:00,
2013-02-17 17:21:00,44.0,10.0,-100.00,SW,227,2.0,7.0,24,0.00,,,0.00,275.000000,,2013-02-18 01:21:00,
2013-02-17 17:52:00,34.0,14.0,-100.00,NE,41,1.0,7.0,44,0.00,,,0.00,65.000000,,2013-02-18 01:52:00,
2013-02-17 18:01:00,34.0,14.0,-100.00,NE,41,1.0,7.0,44,0.00,,,0.00,65.000000,,2013-02-18 02:01:00,
2013-02-17 18:11:00,34.0,14.0,-100.00,NE,41,1.0,7.0,44,0.00,,,0.00,65.000000,,2013-02-18 02:11:00,
2013-02-17 18:21:00,34.0,14.0,-100.00,NE,41,1.0,7.0,44,0.00,,,0.00,65.000000,,2013-02-18 02:21:00,
2013-02-17 18:52:00,30.0,13.0,-100.00,South,182,1.0,2.0,49,0.00,,,0.00,4.000000,,2013-02-18 02:52:00,
2013-02-17 19:01:00,30.0,13.0,-100.00,South,182,1.0,2.0,49,0.00,,,0.00,4.000000,,2013-02-18 03:01:00,
2013-02-17 19:11:00,30.0,13.0,-100.00,South,182,1.0,2.0,49,0.00,,,0.00,4.000000,,2013-02-18 03:11:00,
2013-02-17 19:21:00,30.0,13.0,-100.00,South,182,1.0,2.0,49,0.00,,,0.00,4.000000,,2013-02-18 03:21:00,
2013-02-17 19:52:00,28.0,20.0,-100.00,SSE,147,0.0,3.0,71,0.00,,,0.00,1.000000,,2013-02-18 03:52:00,
2013-02-17 20:01:00,28.0,20.0,-100.00,SSE,147,0.0,3.0,71,0.00,,,0.00,1.000000,,2013-02-18 04:01:00,
2013-02-17 20:11:00,28.0,20.0,-100.00,SSE,147,0.0,3.0,71,0.00,,,0.00,1.000000,,2013-02-18 04:11:00,
2013-02-17 20:21:00,28.0,20.0,-100.00,SSE,147,0.0,3.0,71,0.00,,,0.00,1.000000,,2013-02-18 04:21:00,
2013-02-17 20:52:00,27.0,21.0,-100.00,NE,41,1.0,3.0,77,0.00,,,0.00,1.000000,,2013-02-18 04:52:00,
2013-02-17 21:01:00,27.0,21.0,-100.00,NE,41,1.0,3.0,77,0.00,,,0.00,1.000000,,2013-02-18 05:01:00,
2013-02-17 21:11:00,27.0,21.0,-100.00,NE,41,1.0,3.0,77,0.00,,,0.00,1.000000,,2013-02-18 05:11:00,
2013-02-17 21:21:00,27.0,21.0,-100.00,NE,41,1.0,3.0,77,0.00,,,0.00,1.000000,,2013-02-18 05:21:00,
2013-02-17 21:52:00,27.0,21.0,-100.00,NNW,338,2.0,4.0,79,0.00,,,0.00,1.000000,,2013-02-18 05:52:00,
2013-02-17 22:02:00,27.0,21.0,-100.00,NNW,338,2.0,4.0,79,0.00,,,0.00,1.000000,,2013-02-18 06:02:00,
2013-02-17 22:11:00,27.0,21.0,-100.00,NNW,338,2.0,4.0,79,0.00,,,0.00,1.000000,,2013-02-18 06:11:00,
2013-02-17 22:21:00,27.0,21.0,-100.00,NNW,338,2.0,4.0,79,0.00,,,0.00,1.000000,,2013-02-18 06:21:00,
2013-02-17 22:52:00,26.0,21.0,-100.00,ESE,104,1.0,4.0,80,0.00,,,0.00,1.000000,,2013-02-18 06:52:00,
2013-02-17 23:01:00,26.0,21.0,-100.00,ESE,104,1.0,4.0,80,0.00,,,0.00,1.000000,,2013-02-18 07:01:00,
2013-02-17 23:11:00,26.0,21.0,-100.00,ESE,104,1.0,4.0,80,0.00,,,0.00,1.000000,,2013-02-18 07:11:00,
2013-02-17 23:21:00,26.0,21.0,-100.00,ESE,104,1.0,4.0,80,0.00,,,0.00,1.000000,,2013-02-18 07:21:00,
2013-02-17 23:42:00,27.0,19.0,-100.00,SSW,193,3.0,6.0,72,0.00,,,0.00,1.000000,,2013-02-18 07:42:00,
2013-02-17 23:52:00,27.0,19.0,-100.00,SSW,193,3.0,6.0,72,0.00,,,0.00,1.000000,,2013-02-18 07:52:00,